CZ-6A DEB, 54427

Orbit data source: Space-Track

CZ-6A DEB, 54427 is space debris in SSO originally from a launch on Fri, 11 Nov 2022 UTC launched from the Taiyaun Space Center, China (TSC). Debris objects in space refer to the collection of defunct objects orbiting the Earth. Examples of debris include non-operational satellites, rocket bodies, and fragments generated from explosions, collisions, or faulty payload assembly.

Loading next visibility...
Identifier
54427, 2022-151FB
Orbit
SSO
Country
Flag of CNCN / PRC
Related business
Manufacturer
SAST
Mission
Spacecraft
Bus & Motor
Unknown
Mass
Unknown
Launch date (UTC)
2022-11-11 (4 years ago)
Launch vehicle
Unknown
Launch site
Taiyaun Space Center, China (TSC)
Object type
Payload
Rocket body
Debris
Shape & HBR
Unknown shape, 0.2 m
Radar Cross Section
Medium (>0.1 m² and <1 m²)

Expand to show TLE details & history
Last TLE update: 2 days ago

TLE from 2 days ago
0 CZ-6A DEB
1 54427U 22151FB  26171.43655829  .00000768  00000-0  63032-3 0  9990
2 54427  99.0456 139.9453 0174509 149.8897 211.2431 13.85451718181752
Epoch: 2026-06-20T10:28Z
TLE epoch observation values (Epoch: 2026-06-20T10:28:38.636Z)
Latitude
0.00001°
Longitude
74.13311°
Altitude
1,057.336 km
Speed
7.268 km/s
True Right ascension
09h 19m 46s
True Declination
0° 00' 00"
Sunlit
Object was in daylight at epoch
Visualization orbit readout
Latitude
Unknown
Longitude
Unknown
Altitude
Unknown
Speed
Unknown
Apparent Right ascension
Unknown
Apparent Declination
Unknown
Sunlit
N/A
Visualization observer readout
Local Sidereal Time
21:33:39
Azimuth
Unknown
Elevation
Unknown
Doppler factor
Unknown
Orbital elements
Apogee altitude
1,069.574 km
Perigee altitude
814.093 km
Semi-major axis
7,319.97 km
Eccentricity
0.01745
Inclination
99.0456°
RAAN
139.9453°
Arg. of periapsis
149.8897°
True anomaly
210.22496°
Mean anomaly
211.2431°
Eccentric anomaly
210.73214°
Mean motion
3.46561 °/min
Orbital period
103.88 mins
BSTAR
0.00063032
Loading maneuver chart data...
Computing Atmospheric mass density...
Loading historical data...
Loading historical data...
Loading historical data...
Loading historical data...
Loading historical data...
Loading historical data...
Loading historical data...

Documentation

Showing up to 5 results
|